Other Public Products
Issued by NWS Grand Forks, ND

Home | Current Version | Previous Version | Text Only | Print | Product List | Glossary On
Versions: 1 2 3 4 5 6 7 8 9 10 11 12 13 14 15 16 17 18 19 20 21 22 23 24 25 26 27 28 29 30 31 32 33 34 35 36 37 38 39 40 41 42 43 44 45 46 47 48 49 50
000
FPUS83 KFGF 270110
OPUFGF
PRAIRIE TO PINES WEATHER ROUNDUP
NATIONAL WEATHER SERVICE EASTERN NORTH DAKOTA/GRAND FORKS ND
700 PM CST FRI DEC 26 2014

 **SATELLITE DATA USED TO AUGMENT SKY COVER AT AUTOMATED STATIONS**
 *****  WEATHER ACROSS EASTERN NORTH DAKOTA  *****

CITY           SKY/WX    TMP DP  RH WIND       PRES   REMARKS
GRAND FORKS    CLEAR      5   0  79 NW9       30.25S WCI  -9
GRAND FORKS AF CLEAR      5   1  84 N9        30.25R WCI  -9
GRAND CITY NWS   N/A      7 N/A N/A NW9         N/A  WCI  -7
BUXTON         NOT AVBL
DEVILS LAKE    PTCLDY     1  -4  78 W3        30.18S
FARGO          MOCLDY    15  10  80 N16       30.22R WCI  -1
WAHPETON ARPT  CLOUDY    23  18  80 N13       30.20R WCI  11
$$

 *****  WEATHER ACROSS CENTRAL AND WESTERN NORTH DAKOTA  *****

CITY           SKY/WX    TMP DP  RH WIND       PRES   REMARKS
JAMESTOWN      PTCLDY     5   2  87 NW5       30.20S WCI  -4
BISMARCK       CLEAR      5   2  87 SE3       30.20S
MINOT          CLOUDY     7   0  73 CALM      30.17S
MINOT AFB      CLOUDY     6   1  80 CALM      30.17S
GARRISON         N/A      7   4  87 CALM      30.16S
WILLISTON      CLOUDY    20  14  77 S5        30.13F WCI  13
DICKINSON      PTCLDY    13   8  81 E7        30.11R WCI   3
HETTINGER      CLEAR     12   8  84 CALM      30.12S
$$

 *****  OTHER OBSERVATIONS NORTHEAST NORTH DAKOTA  *****

CITY           SKY/WX    TMP DP  RH WIND       PRES   REMARKS
WALHALLA         N/A      1  -2  85 W7        30.26R WCI -11
LANGDON        FAIR      -4  -9  77 CALM      30.17S
CAVALIER       CLOUDY     7   5  92 NW3       30.26R
GRAFTON        NOT AVBL
CANDO          FAIR       0  -2  92 N3        30.20R
FORT TOTTEN      N/A      1  -3  81 CALM      29.95S
ROLLA          FAIR      -2  -6  84 CALM      30.16S
RUGBY          FAIR       0  -2  92 NW5       30.19S WCI -10
 ***** THE ABOVE OBSERVATIONS ARE NON NWS ARE NOT QUALITY
        CONTROLLED AND MAY MIS-REPORT RAIN FOR SNOW...
$$

 *****  OTHER OBSERVATIONS SOUTHEAST NORTH DAKOTA *****

CITY           SKY/WX    TMP DP  RH WIND       PRES   REMARKS
COOPERSTOWN    NOT AVBL
VALLEY CITY    FAIR       5   5 100 NW8       30.21S WCI  -8
OAKES            N/A      9   7  92 NW13      30.22R WCI  -7
GWINNER        CLOUDY    16  12  86 NW15      30.22R WCI   1
SHEYENNE NWR     N/A     15  10  80 NW9       29.95  WCI   3
BUFFALO        NOT AVBL
WYNDMERE         N/A     19  16  86 NW12        N/A  WCI   7
 ***** THE ABOVE OBSERVATIONS ARE NON NWS ARE NOT QUALITY
       CONTROLLED AND MAY MIS-REPORT RAIN FOR SNOW...
$$

  *****  WEATHER ACROSS NORTHERN MINNESOTA  *****

CITY           SKY/WX    TMP DP  RH WIND       PRES   REMARKS
FLAG ISLAND    CLOUDY    12   7  79 NW12      30.18R WCI  -2
WARROAD        FLURRIES  16  10  79 NW9       30.18S WCI   4
ROSEAU         FLURRIES  16  10  79 NW5       30.18S WCI   9
HALLOCK        FLURRIES  10   7  85 NW9       30.24R WCI  -2
THF RVR FALLS  CLOUDY    12  10  92 NW9       30.19S WCI   0
HALSTAD          N/A     11   5  76 N13         N/A  WCI  -4
FOSSTON        FLURRIES  16  12  86 NW8       30.17R WCI   5
BAUDETTE       CLOUDY    17  11  77 N7        30.15S WCI   8
WASKISH        CLOUDY    19  16  86 CALM      30.14S
CROOKSTON      CLOUDY    10   7  85 NW12      30.24R WCI  -4
$$
  *****  WEATHER ACROSS CENTRAL AND WEST MINNESOTA  *****

CITY           SKY/WX    TMP DP  RH WIND       PRES   REMARKS
BEMIDJI        CLOUDY    21  15  78 NW9       30.13R WCI  10
PARK RAPIDS    CLOUDY    23  15  71 N10       30.12R WCI  12
WADENA         CLOUDY    21  18  86 N6        30.12S WCI  14
DETROIT LAKES  CLOUDY    21  19  93 N14       30.15S WCI   8
MOORHEAD       LGT SNOW  19  18  93 NW14      30.21S WCI   6
FERGUS FALLS   CLOUDY    21  16  79 N12G21    30.20R WCI   9
ELBOW LAKE     CLOUDY    23  18  83 N10       30.15R WCI  12
MORRIS MN      MOCLDY    25  19  80 N14       30.14S WCI  13
STAPLES        CLOUDY    23  16  74 N7        30.13R WCI  15
WHEATON        CLOUDY    21  16  79 NW15      30.20R WCI   8
$$
  *****  WEATHER ELSEWHERE ACROSS MINNESOTA  *****

CITY           SKY/WX    TMP DP  RH WIND       PRES   REMARKS
DULUTH         CLOUDY    27  20  75 N6        30.07R WCI  20
INTRNTL FALLS  CLOUDY    19  12  74 NW8       30.13S WCI   9
ELY            CLOUDY    23  18  80 CALM      30.08S
CLOQUET        CLOUDY    27  19  74 N7        30.08S WCI  19
BRAINERD       CLOUDY    23  17  78 N14       30.12R WCI  11
HIBBING        CLOUDY    23  16  74 NW12      30.09S WCI  12
ALEXANDRIA     CLOUDY    24  18  77 N9        30.12R WCI  14
SAINT CLOUD    CLOUDY    30  20  66 N7        30.10R WCI  23
MINNEAPOLIS    CLOUDY    31  23  72 N8        30.09R WCI  23
$$

  *****  WEATHER ACROSS SOUTH DAKOTA  *****

CITY           SKY/WX    TMP DP  RH WIND       PRES   REMARKS
SIOUX FALLS    LGT SNOW  23  20  88 N13       30.09S FOG     WCI  11
BROOKINGS      NOT AVBL
WATERTOWN      CLOUDY    20  17  88 N13       30.12R WCI   7
HURON          CLOUDY    21  17  84 N17       30.16S WCI   7
SISSETON         N/A     20  18  92 N14       30.18R WCI   7
ABERDEEN       CLOUDY    17  12  80 N14       30.22R WCI   3
MITCHELL       LGT SNOW  23  21  92 N16       30.16R FOG     WCI  10
PIERRE         CLOUDY    16  10  77 NE9       30.17R WCI   4
MOBRIDGE       PTCLDY    13   8  81 E9        30.14F WCI   1
RAPID CITY     CLOUDY    18  13  80 CALM      30.11R
$$

  *****  SOME WEATHER IN NEARBY STATES *****

CITY           SKY/WX    TMP DP  RH WIND       PRES   REMARKS
GLASGOW MT     CLOUDY    25  19  78 NW9       30.11R WCI  15
GREAT FALLS MT CLEAR     10   7  87 S10       30.07F WCI  -4
CHEYENNE WY    LGT SNOW  13   8  81 N7        29.94R WCI   3
SCOTTSBLUFF NE LGT SNOW  19  16  88 NW3       30.07R FOG
OMAHA NE       FRZ DRZL  32  31  96 N10       30.04R FOG     WCI  24
DES MOINES IA  CLOUDY    35  31  85 N6        29.98S
DAVENPORT IA   CLOUDY    43  37  79 N7        29.97F
CHICAGO IL     CLOUDY    46  39  76 S5        30.01S
EAU CLAIRE WI  CLOUDY    33  28  81 N5        30.04R
LA CROSSE WI   CLOUDY    36  32  85 NW8       30.01R
$$

  *****  SOME NATIONAL WEATHER *****

CITY           SKY/WX    TMP DP  RH WIND       PRES   REMARKS
LA GUARDIA NY  CLEAR     46  29  51 W9        30.23R
RALEIGH NC     PTCLDY    40  34  79 CALM      30.31S
ATLANTA GA     PTCLDY    49  34  56 CALM      30.29R
NEW ORLEANS LA CLOUDY    62  54  74 E9        30.15R
OKLAHOMA CITY  MOCLDY    45  33  63 N17       29.98R
ALBUQUERQUE NM PTCLDY    33  12  41 SW10      29.97R WCI  25
SALT LAKE CITY PTCLDY    25  15  66 N7        30.13R WCI  17
LOS ANGELES CA PTCLDY    57  24  28 SW9       30.09R
BOISE ID       PTCLDY    33  22  63 W5        30.25R
SEATTLE WA     MOCLDY    40  36  86 N3        30.35S
$$

*** WEATHER ACROSS MANITOBA...SASKATCHEWAN AND ONTARIO ***
                ***ONTARIO***

CITY           SKY/WX    TMP DP  RH WIND       PRES   REMARKS
GERALDTON      CLOUDY    21  19  93 NW2       30.06R
THUNDER BAY    CLOUDY    28  19  69 NW7       30.09S WCI  21
SIOUX LOOKOUT  FLURRIES  10   7  85 W8        30.12R WCI  -1
TORONTO        NOT AVBL
BIG TROUT LK   PTCLDY    -2  -8  78 NW8       30.10R WCI -17
PICKLE LAKE    FLURRIES  16  12  86 W10       30.03S WCI   3
DRYDEN         FLURRIES   5   3  92 W12       30.14R WCI -11
KENORA         FLURRIES   7   3  85 NW9       30.16R WCI  -7
$$
                *** MANITOBA***

CITY           SKY/WX    TMP DP  RH WIND       PRES   REMARKS
BRANDON        CLEAR     -9 -15  77 W9        30.21S WCI -27
DAUPHIN        CLEAR     -6 -13  71 SW13      30.18F WCI -25
ISLAND LAKE    CLEAR     -9 -17  70 W5        30.15R WCI -21
PILOT MOUND      N/A     -8 -11  84 NW3         N/A
THE PAS        NOT AVBL
THOMPSON       CLEAR    -26 -31  75 VRB2      30.10S
WINNIPEG       FLURRIES   3  -2  78 NW9       30.27R WCI -11
CHURCHILL      PTCLDY   -13 -18  77 W9        30.02S WCI -31
GILLAM         CRYSTALS -20 -27  69 W8        30.08F WCI -39
$$
                ***SASKATCHEWAN***

CITY           SKY/WX    TMP DP  RH WIND       PRES   REMARKS
ESTEVAN        CLOUDY    10   7  85 S3        30.13S
KINDERSLEY     PTCLDY     1   0  92 SW5       30.05S WCI  -8
LLOYDMINSTER   FLURRIES  10   7  85 SW5       30.00F WCI   2
PRINCE ALBERT  NOT AVBL
REGINA         SNOWSHWR   7   5  92 SE7       30.10F WCI  -5
YORKTON        CLOUDY    -6 -11  77 SW8       30.12S WCI -21



USA.gov is the U.S. government's official web portal to all federal, state and local government web resources and services.